Time,TemperatureF,DewpointF,PressureIn,WindDirection,WindDirectionDegrees,WindSpeedMPH,WindSpeedGustMPH,Humidity,HourlyPrecipIn,Conditions,Clouds,dailyrainin,SolarRadiationWatts/m^2,SoftwareType,DateUTC
2013-11-14 00:02:00,31.0,23.0,-100.00,SW,218,4.0,11.0,71,0.00,,,0.04,0.000000,,2013-11-14 07:02:00,
2013-11-14 00:42:00,30.0,22.0,-100.00,SW,221,6.0,7.0,71,0.00,,,0.04,0.000000,,2013-11-14 07:42:00,
2013-11-14 00:53:00,30.0,22.0,-100.00,SW,221,6.0,7.0,71,0.00,,,0.04,0.000000,,2013-11-14 07:53:00,
2013-11-14 01:01:00,30.0,22.0,-100.00,SW,221,6.0,7.0,71,0.00,,,0.04,0.000000,,2013-11-14 08:01:00,
2013-11-14 01:42:00,30.0,22.0,-100.00,SSW,206,7.0,9.0,73,0.00,,,0.04,0.000000,,2013-11-14 08:42:00,
2013-11-14 01:53:00,30.0,22.0,-100.00,SSW,206,7.0,9.0,73,0.00,,,0.04,0.000000,,2013-11-14 08:53:00,
2013-11-14 02:02:00,30.0,22.0,-100.00,SSW,206,7.0,9.0,73,0.00,,,0.04,0.000000,,2013-11-14 09:02:00,
2013-11-14 02:43:00,29.0,21.0,-100.00,SSW,195,5.0,8.0,73,0.00,,,0.04,0.000000,,2013-11-14 09:43:00,
2013-11-14 02:53:00,29.0,21.0,-100.00,SSW,195,5.0,8.0,73,0.00,,,0.04,0.000000,,2013-11-14 09:53:00,
2013-11-14 03:03:00,29.0,21.0,-100.00,SSW,195,5.0,8.0,73,0.00,,,0.04,0.000000,,2013-11-14 10:03:00,
2013-11-14 03:42:00,29.0,21.0,-100.00,South,186,4.0,7.0,71,0.00,,,-99.99,0.000000,,2013-11-14 10:42:00,
2013-11-14 03:52:00,29.0,21.0,-100.00,South,186,4.0,7.0,71,0.00,,,-99.99,0.000000,,2013-11-14 10:52:00,
2013-11-14 04:01:00,29.0,21.0,-100.00,South,186,4.0,7.0,71,0.00,,,-99.99,0.000000,,2013-11-14 11:01:00,
2013-11-14 04:42:00,27.0,20.0,-100.00,SW,222,1.0,4.0,76,0.00,,,0.04,0.000000,,2013-11-14 11:42:00,
2013-11-14 04:52:00,27.0,20.0,-100.00,SW,222,1.0,4.0,76,0.00,,,0.04,0.000000,,2013-11-14 11:52:00,
2013-11-14 05:02:00,27.0,20.0,-100.00,SW,222,1.0,4.0,76,0.00,,,0.04,0.000000,,2013-11-14 12:02:00,
2013-11-14 05:42:00,28.0,20.0,-100.00,SE,133,2.0,3.0,73,0.00,,,0.04,0.000000,,2013-11-14 12:42:00,
2013-11-14 05:52:00,28.0,20.0,-100.00,SE,133,2.0,3.0,73,0.00,,,0.04,0.000000,,2013-11-14 12:52:00,
2013-11-14 06:01:00,28.0,20.0,-100.00,SE,133,2.0,3.0,73,0.00,,,0.04,0.000000,,2013-11-14 13:01:00,
2013-11-14 06:42:00,28.0,20.0,-100.00,North,353,5.0,5.0,71,0.00,,,0.04,0.000000,,2013-11-14 13:42:00,
2013-11-14 06:52:00,28.0,20.0,-100.00,North,353,5.0,5.0,71,0.00,,,0.04,0.000000,,2013-11-14 13:52:00,
2013-11-14 07:02:00,28.0,20.0,-100.00,North,353,5.0,5.0,71,0.00,,,0.04,0.000000,,2013-11-14 14:02:00,
2013-11-14 07:42:00,27.0,20.0,-100.00,NNW,345,4.0,7.0,74,0.00,,,0.04,0.000000,,2013-11-14 14:42:00,
2013-11-14 07:52:00,27.0,20.0,-100.00,NNW,345,4.0,7.0,74,0.00,,,0.04,0.000000,,2013-11-14 14:52:00,
2013-11-14 08:02:00,27.0,20.0,-100.00,NNW,345,4.0,7.0,74,0.00,,,0.04,0.000000,,2013-11-14 15:02:00,
2013-11-14 08:43:00,27.0,19.0,-100.00,SE,125,2.0,5.0,70,0.00,,,0.03,7.000000,,2013-11-14 15:43:00,
2013-11-14 08:53:00,27.0,19.0,-100.00,SE,125,2.0,5.0,70,0.00,,,0.03,7.000000,,2013-11-14 15:53:00,
2013-11-14 09:03:00,27.0,19.0,-100.00,SE,125,2.0,5.0,70,0.00,,,0.03,7.000000,,2013-11-14 16:03:00,
2013-11-14 09:42:00,29.0,18.0,-100.00,North,7,3.0,6.0,62,0.00,,,0.01,67.000000,,2013-11-14 16:42:00,
2013-11-14 09:52:00,29.0,18.0,-100.00,North,7,3.0,6.0,62,0.00,,,0.01,67.000000,,2013-11-14 16:52:00,
2013-11-14 10:02:00,29.0,18.0,-100.00,North,7,3.0,6.0,62,0.00,,,0.01,67.000000,,2013-11-14 17:02:00,
2013-11-14 10:42:00,32.0,15.0,-100.00,NNE,24,3.0,6.0,50,0.00,,,0.01,171.000000,,2013-11-14 17:42:00,
2013-11-14 10:52:00,32.0,15.0,-100.00,NNE,24,3.0,6.0,50,0.00,,,0.01,171.000000,,2013-11-14 17:52:00,
2013-11-14 11:02:00,32.0,15.0,-100.00,NNE,24,3.0,6.0,50,0.00,,,0.01,171.000000,,2013-11-14 18:02:00,
2013-11-14 11:42:00,34.0,16.0,-100.00,West,266,3.0,7.0,47,0.00,,,0.01,267.000000,,2013-11-14 18:42:00,
2013-11-14 11:52:00,34.0,16.0,-100.00,West,266,3.0,7.0,47,0.00,,,0.01,267.000000,,2013-11-14 18:52:00,
2013-11-14 12:01:00,34.0,16.0,-100.00,West,266,3.0,7.0,47,0.00,,,0.01,267.000000,,2013-11-14 19:01:00,
2013-11-14 12:42:00,35.0,16.0,-100.00,SSW,203,7.0,11.0,45,0.00,,,0.00,351.000000,,2013-11-14 19:42:00,
2013-11-14 12:52:00,35.0,16.0,-100.00,SSW,203,7.0,11.0,45,0.00,,,0.00,351.000000,,2013-11-14 19:52:00,
2013-11-14 13:02:00,35.0,16.0,-100.00,SSW,203,7.0,11.0,45,0.00,,,0.00,351.000000,,2013-11-14 20:02:00,
2013-11-14 13:42:00,40.0,12.0,-100.00,WSW,257,4.0,10.0,31,0.00,,,0.00,407.000000,,2013-11-14 20:42:00,
2013-11-14 13:52:00,40.0,12.0,-100.00,WSW,257,4.0,10.0,31,0.00,,,0.00,407.000000,,2013-11-14 20:52:00,
2013-11-14 14:02:00,40.0,12.0,-100.00,WSW,257,4.0,10.0,31,0.00,,,0.00,407.000000,,2013-11-14 21:02:00,
2013-11-14 14:43:00,39.0,14.0,-100.00,SSW,199,5.0,13.0,35,0.00,,,0.00,382.000000,,2013-11-14 21:43:00,
2013-11-14 14:53:00,39.0,14.0,-100.00,SSW,199,5.0,13.0,35,0.00,,,0.00,382.000000,,2013-11-14 21:53:00,
2013-11-14 15:03:00,39.0,14.0,-100.00,SSW,199,5.0,13.0,35,0.00,,,0.00,382.000000,,2013-11-14 22:03:00,
2013-11-14 15:43:00,38.0,11.0,-100.00,SW,220,7.0,13.0,33,0.00,,,0.00,240.000000,,2013-11-14 22:43:00,
2013-11-14 15:53:00,38.0,11.0,-100.00,SW,220,7.0,13.0,33,0.00,,,0.00,240.000000,,2013-11-14 22:53:00,
2013-11-14 16:02:00,38.0,11.0,-100.00,SW,220,7.0,13.0,33,0.00,,,0.00,240.000000,,2013-11-14 23:02:00,
2013-11-14 16:43:00,36.0,14.0,-100.00,WSW,239,7.0,13.0,40,0.00,,,0.00,184.000000,,2013-11-14 23:43:00,
2013-11-14 16:52:00,36.0,14.0,-100.00,WSW,239,7.0,13.0,40,0.00,,,0.00,184.000000,,2013-11-14 23:52:00,
2013-11-14 17:01:00,36.0,14.0,-100.00,WSW,239,7.0,13.0,40,0.00,,,0.00,184.000000,,2013-11-15 00:01:00,
2013-11-14 17:42:00,33.0,14.0,-100.00,West,276,7.0,13.0,46,0.00,,,0.00,20.000000,,2013-11-15 00:42:00,
2013-11-14 17:52:00,33.0,14.0,-100.00,West,276,7.0,13.0,46,0.00,,,0.00,20.000000,,2013-11-15 00:52:00,
2013-11-14 18:01:00,33.0,14.0,-100.00,West,276,7.0,13.0,46,0.00,,,0.00,20.000000,,2013-11-15 01:01:00,
2013-11-14 18:42:00,31.0,14.0,-100.00,WNW,299,7.0,14.0,49,0.00,,,0.00,0.000000,,2013-11-15 01:42:00,
2013-11-14 18:52:00,31.0,14.0,-100.00,WNW,299,7.0,14.0,49,0.00,,,0.00,0.000000,,2013-11-15 01:52:00,
2013-11-14 19:02:00,31.0,14.0,-100.00,WNW,299,7.0,14.0,49,0.00,,,0.00,0.000000,,2013-11-15 02:02:00,
2013-11-14 19:42:00,30.0,15.0,-100.00,WSW,254,5.0,15.0,52,0.00,,,0.00,0.000000,,2013-11-15 02:42:00,
2013-11-14 19:52:00,30.0,15.0,-100.00,WSW,254,5.0,15.0,52,0.00,,,0.00,0.000000,,2013-11-15 02:52:00,
2013-11-14 20:02:00,30.0,15.0,-100.00,WSW,254,5.0,15.0,52,0.00,,,0.00,0.000000,,2013-11-15 03:02:00,
2013-11-14 20:44:00,29.0,17.0,-100.00,WNW,295,6.0,11.0,60,0.00,,,0.00,0.000000,,2013-11-15 03:44:00,
2013-11-14 20:54:00,29.0,17.0,-100.00,WNW,295,6.0,11.0,60,0.00,,,0.00,0.000000,,2013-11-15 03:54:00,
2013-11-14 21:04:00,29.0,17.0,-100.00,WNW,295,6.0,11.0,60,0.00,,,0.00,0.000000,,2013-11-15 04:04:00,
2013-11-14 21:43:00,28.0,18.0,-100.00,NW,307,5.0,13.0,67,0.00,,,0.00,0.000000,,2013-11-15 04:43:00,
2013-11-14 21:53:00,28.0,18.0,-100.00,NW,307,5.0,13.0,67,0.00,,,0.00,0.000000,,2013-11-15 04:53:00,
2013-11-14 22:03:00,28.0,18.0,-100.00,NW,307,5.0,13.0,67,0.00,,,0.00,0.000000,,2013-11-15 05:03:00,
2013-11-14 22:44:00,28.0,19.0,-100.00,NW,318,10.0,15.0,69,0.00,,,0.00,0.000000,,2013-11-15 05:44:00,
2013-11-14 22:53:00,28.0,19.0,-100.00,NW,318,10.0,15.0,69,0.00,,,0.00,0.000000,,2013-11-15 05:53:00,
2013-11-14 23:02:00,28.0,19.0,-100.00,NW,318,10.0,15.0,69,0.00,,,0.00,0.000000,,2013-11-15 06:02:00,
2013-11-14 23:43:00,28.0,20.0,-100.00,West,272,8.0,16.0,70,0.00,,,0.00,0.000000,,2013-11-15 06:43:00,
2013-11-14 23:53:00,28.0,20.0,-100.00,West,272,8.0,16.0,70,0.00,,,0.00,0.000000,,2013-11-15 06:53:00,